STARLINK-37092

Last updated on Sun Apr 12 2026 00:02:07 GMT+0000 (Coordinated Universal Time)

1 68240U 26054J 26101.40475598 .00250787 00000+0 15774-2 0 9993 2 68240 53.1563 149.0486 0000744 28.2942 331.8118 15.75451242 3946
UTC large
Height (km)
Speed (km/s)
/
Latitude / Longitude
Inclination (degrees)
Orbital Period (minutes)
Azimuth
Elevation
Range (km)
Doppler Factor

Next 0 passes for location: London (51.5072 / 0.1276)

Sorry there are no passes over London.
STARLINK-37092